SCP
0 0 0 0 0 0 0 0 0 0 0 0 0 0 0 0 -0 -0 -0 0 0 0 0 0 0 -0 -0 0 -0 -0 -0 -0 0 0 0 0 0 0 0 0 0 1 1 1
0 0 0 0 0 0 0 0 0 0 0 0 0 0 0 -0 -0 -0 0 0 0 0 0 0 0 0 0 0 0 0 -0 -0 0 0 0 0 0 0 0 0 0 1 1 1
0 0 0 0 0 0 0 0 0 0 0 0 0 0 0 0 0 0 0 0 0 0 0 0 0 0 0 0 0 0 0 0 0 0 0 0 0 0 0 0 0 1 1 1
0 0 0 0 0 0 0 0 0 0 0 0 0 0 0 0 0 0 0 0 0 0 0 0 0 0 0 0 0 0 0 0 0 0 0 0 0 0 0 0 0 0 0 1
0 0 0 0 0 0 0 0 0 0 0 0 0 0 0 0 0 0 0 0 0 0 0 0 0 0 0 0 0 0 0 0 0 0 0 0 0 0 0 0 0 0 0 0
0 0 0 0 0 0 0 0 0 0 0 0 0 0 0 0 0 0 0 0 0 0 0 0 0 0 0 0 0 0 0 0 0 0 0 0 0 0 0 0 0 0 0 0
0 0 0 0 0 0 0 0 0 0 0 0 0 0 0 0 0 0 0 0 0 0 0 0 0 0 0 0 0 0 0 0 0 0 0 0 0 0 0 0 0 0 0 0
0 0 0 0 0 0 0 0 0 0 0 0 0 0 0 0 0 0 0 0 0 0 0 0 0 0 0 0 0 0 0 0 0 0 0 0 0 0 0 0 0 0 0 0
0 0 0 0 0 0 0 0 0 0 0 0 0 0 0 0 0 0 0 0 0 0 0 0 0 0 0 0 0 0 0 0 0 0 0 0 0 0 0 0 0 0 0 0
0 0 0 0 0 0 0 0 0 0 0 0 0 0 0 0 0 0 0 0 0 0 0 0 0 0 0 0 0 0 0 0 0 0 0 0 0 0 0 0 0 0 0 0
0 0 0 0 0 0 0 0 0 0 0 0 0 0 0 0 0 0 0 0 0 0 0 0 0 0 0 0 0 0 0 0 0 0 0 0 0 0 0 0 0 0 0 0
0 0 0 0 0 0 0 0 0 0 0 0 0 0 0 0 0 0 0 0 0 0 0 0 0 0 0 0 0 0 0 0 0 0 0 0 0 0 0 0 0 0 0 0
0 0 0 0 0 0 0 0 0 0 0 0 0 0 0 0 0 0 0 0 0 0 0 0 0 0 0 0 0 0 0 0 0 0 0 0 0 0 0 0 0 0 0 0
0 0 0 0 0 0 0 0 0 0 0 0 0 0 0 0 0 0 0 0 0 0 0 0 0 0 0 0 0 0 0 0 0 0 0 0 0 0 0 0 0 0 0 0
0 0 0 0 0 0 0 0 0 0 0 0 0 0 0 0 0 0 0 0 0 0 0 0 0 0 0 0 0 0 0 0 0 0 0 0 0 0 0 0 0 0 0 0
0 0 0 0 0 0 0 0 0 0 0 0 0 0 0 0 0 0 0 0 0 0 0 0 0 0 0 0 0 0 0 0 0 0 0 0 0 0 0 0 0 0 0 0
0 0 0 0 0 0 0 0 0 0 0 0 0 0 0 0 0 0 0 0 0 0 0 0 0 0 0 0 0 0 0 0 0 0 0 0 0 0 0 0 0 0 0 0
0 0 0 0 0 0 0 0 0 0 0 0 0 0 0 0 0 0 0 0 0 0 0 0 0 0 0 0 0 0 0 0 0 0 0 0 0 -0 -0 0 0 0 0 0
0 0 0 0 0 0 0 0 0 0 0 0 0 0 0 0 0 0 0 0 0 0 0 0 0 0 0 0 0 0 0 0 0 0 0 0 -0 -0 0 0 0 0 0 0
0 0 0 0 0 0 0 0 0 0 0 0 0 0 0 0 0 0 0 0 0 0 0 0 0 0 0 0 0 0 0 0 0 0 0 0 0 0 0 0 0 0 0 0
0 0 0 0 0 0 0 0 0 0 0 0 0 0 0 0 0 0 0 0 0 0 0 0 0 0 0 0 0 0 0 0 0 0 0 0 0 0 0 0 0 0 0 0
0 0 0 0 0 0 0 0 0 0 0 0 0 0 0 0 0 0 0 0 0 0 0 0 0 0 0 0 0 0 0 0 0 0 0 0 0 0 0 0 0 0 0 0
0 0 0 0 0 0 0 0 0 0 0 0 0 0 0 0 0 0 0 0 0 0 0 0 0 0 0 0 0 0 0 0 0 0 0 0 0 0 0 0 0 0 0 0
0 0 0 0 0 0 0 0 0 0 0 0 0 0 0 0 0 0 0 0 0 0 0 0 0 0 0 0 0 0 0 0 0 0 0 0 0 0 0 0 0 0 0 0
0 0 0 0 0 0 0 0 0 0 0 0 0 0 0 0 0 0 0 0 0 0 0 0 0 0 0 0 0 0 0 0 0 0 0 0 0 0 0 0 0 0 0 0
0 0 0 0 0 0 0 0 0 0 0 0 0 0 0 0 0 0 0 0 0 0 0 0 0 0 0 0 0 0 0 0 0 0 0 0 0 0 0 0 0 0 0 0
0 0 0 0 0 0 0 0 0 0 0 0 0 0 0 0 0 0 0 0 0 0 0 0 0 0 0 0 0 0 0 0 0 0 0 0 0 0 0 0 0 0 0 0
Wind_Speed
11 11 8 6 9 9 8 9 10 9 8 9 10 12 13 14 16 17 16 14 12 11 10 9 9 9 9 9 9 8 9 10 10 10 10 10 11 11 12 13 14 14 14 12
11 6 2 8 12 8 7 7 6 3 3 8 11 10 13 15 17 18 18 17 17 16 15 14 13 13 12 13 12 11 11 12 11 12 12 12 11 12 12 12 13 14 14 13
8 3 8 5 11 9 5 4 5 4 7 12 14 13 14 17 20 19 19 20 20 20 19 18 18 17 16 16 15 14 14 14 13 13 12 12 12 12 12 12 12 12 13 14
9 10 6 9 6 7 3 2 1 4 10 13 16 18 19 21 19 18 21 23 23 22 21 21 21 20 19 18 17 16 16 15 15 14 14 13 12 12 11 10 10 10 11 13
7 10 7 6 7 11 11 12 7 10 18 21 22 24 20 17 21 24 25 24 23 23 24 23 22 21 21 20 19 18 18 17 16 16 15 14 14 13 11 10 10 10 10 10
6 8 4 7 9 12 13 10 1 17 22 23 25 21 18 21 24 24 24 23 23 23 24 23 22 21 21 21 20 19 19 18 17 16 15 15 15 14 13 11 11 10 9 8
8 6 5 6 11 14 12 12 19 22 22 23 22 21 24 26 26 25 25 25 24 24 22 21 21 21 22 21 21 20 18 18 18 16 15 15 15 13 13 13 12 11 10 7
7 7 3 8 12 11 14 19 20 22 22 23 23 25 25 26 26 26 25 25 25 22 21 20 19 20 21 21 20 19 18 18 17 17 16 14 14 13 13 13 13 12 10 7
6 5 4 8 12 14 16 20 21 20 22 24 25 27 27 26 26 25 25 24 22 22 22 19 19 19 21 20 19 19 18 18 17 17 15 14 14 14 13 12 12 11 8 6
6 5 8 14 14 16 18 20 21 21 23 25 27 27 27 25 24 25 24 23 22 22 22 21 20 20 20 20 19 19 19 17 15 14 14 14 12 13 13 12 11 9 8 6
8 9 13 12 16 19 19 20 21 21 23 25 26 27 27 25 25 23 23 22 21 21 21 22 21 21 21 20 19 19 18 16 13 13 13 12 12 11 12 11 8 7 6 5
8 12 15 18 18 20 20 21 22 24 25 24 25 26 27 25 24 24 24 23 23 22 22 22 22 22 20 19 18 17 15 14 11 9 10 10 11 12 13 12 7 7 4 4
11 15 17 19 20 21 19 22 24 24 25 25 24 24 26 25 24 25 26 26 23 23 23 22 22 22 20 18 16 16 15 13 9 9 10 10 11 12 10 10 10 10 9 8
12 14 18 19 20 20 22 23 23 24 24 25 25 25 25 25 25 26 27 25 23 23 23 22 21 21 19 16 14 14 13 12 11 9 9 10 11 11 10 9 9 8 9 11
13 15 18 19 20 21 22 23 24 24 24 25 25 25 26 27 27 27 26 23 22 22 22 21 20 18 16 14 13 12 10 7 7 8 9 10 11 11 9 9 7 6 6 8
16 16 17 19 21 23 24 24 24 25 26 26 26 26 26 27 27 27 25 22 22 23 22 20 18 16 14 12 10 8 7 9 9 7 8 10 10 10 8 6 6 5 6 6
16 17 18 20 22 23 23 23 24 25 26 26 27 27 27 27 26 25 24 22 21 22 20 18 15 12 11 9 8 5 4 5 9 8 8 8 8 7 6 5 4 5 6 8
14 16 18 20 21 22 23 24 24 25 25 25 26 26 26 26 26 25 24 23 22 20 17 14 12 10 9 7 5 3 3 3 5 6 6 5 4 4 3 3 5 7 7 9
15 17 18 19 20 20 21 22 23 23 23 23 24 25 25 25 25 24 23 22 20 18 16 14 12 9 6 3 3 2 2 3 3 4 3 3 3 3 3 4 6 7 8 10
14 16 18 19 20 20 21 21 21 21 21 23 23 24 25 25 25 24 23 19 14 13 15 14 11 6 3 1 3 2 1 2 2 2 2 2 3 4 4 5 6 6 9 13
15 16 17 18 19 20 19 20 19 20 22 22 22 23 24 25 24 22 19 16 16 17 16 12 6 4 3 2 3 1 1 1 2 2 3 3 4 4 4 5 5 8 12 14
13 14 16 17 18 18 18 17 18 20 21 21 22 23 23 23 23 21 19 14 16 20 13 7 5 4 4 4 2 1 1 1 1 1 2 2 2 1 2 4 7 10 12 13
12 12 14 16 17 17 17 17 18 18 20 21 21 21 21 20 16 16 17 16 16 19 11 7 6 4 3 4 2 2 2 2 2 1 1 1 1 2 3 6 8 10 11 11
11 12 13 14 15 15 16 17 18 16 19 19 18 19 18 16 15 14 13 18 21 19 10 9 8 5 4 3 3 3 2 2 3 2 2 1 2 3 6 7 8 9 10 12
10 11 11 13 13 12 14 16 16 17 18 16 19 20 16 13 14 15 15 17 20 18 12 11 10 7 4 4 3 3 2 2 3 2 1 2 4 6 7 8 9 10 10 10
9 9 9 10 10 10 11 12 12 13 14 15 16 15 15 14 15 14 14 16 20 17 14 11 12 10 8 6 5 3 2 1 1 2 4 5 7 7 8 9 12 10 9 9
8 7 7 8 8 10 11 11 12 13 13 14 16 15 15 14 14 15 16 14 14 13 12 11 11 11 10 10 9 7 5 4 4 5 6 6 7 7 8 10 9 9 8 9
Wind_Direction
283 291 293 335 357 351 339 335 319 358 49 32 2 341 327 320 315 309 306 303 298 292 289 284 281 280 279 280 281 285 292 293 292 294 296 299 301 303 303 294 278 262 247 237
279 287 290 70 26 19 23 0 359 19 65 6 333 314 300 294 292 291 293 296 297 294 291 289 286 282 276 271 268 264 265 270 273 279 286 290 293 295 297 296 287 271 252 236
298 341 243 93 25 15 42 31 358 350 330 317 305 296 290 291 294 295 299 303 306 306 305 303 299 296 289 283 277 271 268 267 262 260 265 272 281 289 296 301 298 282 263 243
300 297 299 78 54 18 336 226 249 309 307 302 300 305 304 298 306 316 317 314 310 307 304 302 300 299 297 292 286 279 276 275 271 268 268 267 270 275 283 291 296 293 279 259
320 310 109 116 26 353 314 280 240 305 321 322 321 312 305 326 333 319 311 308 306 304 303 302 301 298 294 290 285 279 276 276 274 271 270 269 268 271 276 280 285 288 287 277
338 316 352 58 4 327 298 273 328 325 322 322 320 313 319 326 316 310 308 306 304 303 301 298 297 297 293 289 285 281 280 277 275 271 267 266 266 267 270 274 275 278 279 281
335 326 74 21 337 322 308 327 330 320 318 317 316 311 310 312 311 310 306 305 304 302 301 300 300 296 290 286 283 282 282 278 273 269 265 262 262 261 261 263 268 272 274 268
334 329 35 8 333 329 315 315 314 315 314 313 311 308 309 310 310 308 307 306 307 305 304 304 301 297 291 286 285 284 281 276 270 265 262 261 258 256 255 257 260 262 261 254
337 334 345 327 315 313 317 313 313 312 312 312 310 309 310 310 309 308 307 307 308 306 305 302 298 294 289 287 285 283 279 274 268 263 256 255 256 255 250 244 250 257 256 243
292 284 302 311 310 320 318 312 310 309 309 309 308 309 310 309 309 308 308 309 308 305 302 298 295 291 286 285 282 278 275 272 268 261 255 251 248 248 246 243 241 247 252 240
283 308 311 309 323 322 316 312 309 308 308 309 309 308 309 308 308 307 307 307 307 304 300 297 296 293 290 287 284 279 275 268 262 257 253 254 253 249 249 245 244 250 261 240
318 326 314 314 320 316 314 313 313 313 311 310 309 308 309 308 308 307 306 307 306 304 300 298 296 293 291 288 284 278 273 267 258 248 247 247 249 244 223 228 190 192 229 252
299 312 312 310 310 315 314 313 314 313 311 310 310 311 311 309 308 307 306 307 308 305 301 298 296 293 292 290 286 278 271 266 254 244 239 239 241 241 224 196 192 198 200 202
307 312 310 312 314 315 315 314 313 312 311 312 313 313 312 310 308 307 307 310 310 305 302 300 296 294 295 297 292 282 272 261 250 240 235 236 237 232 222 201 187 200 204 207
318 316 309 312 314 316 318 317 316 316 317 316 316 316 315 312 310 310 311 312 309 306 304 303 298 296 298 299 295 288 275 255 241 235 232 231 229 224 214 206 198 199 197 193
314 312 315 317 319 320 320 320 319 318 319 318 319 318 316 314 313 313 313 313 311 310 307 305 300 298 300 299 296 287 271 251 240 234 230 225 218 211 199 192 201 209 210 205
315 319 323 324 325 323 322 321 320 320 320 320 320 318 319 319 316 313 312 312 311 308 305 303 303 304 302 300 298 287 271 243 228 229 229 220 207 197 187 189 207 214 215 202
315 317 321 324 324 322 320 322 322 323 322 321 320 321 323 320 315 313 314 314 313 311 311 311 312 309 304 303 304 285 262 247 225 222 218 208 196 180 182 207 223 226 221 191
318 320 323 325 324 321 322 323 324 324 323 323 325 323 319 315 314 315 316 317 317 319 322 322 313 304 304 316 305 270 244 233 228 222 212 173 200 214 224 236 232 226 190 171
320 324 326 325 325 326 324 327 327 324 325 327 325 321 318 319 320 320 321 320 322 326 325 325 322 320 326 22 294 271 223 217 216 219 226 230 241 249 244 231 218 189 168 167
326 328 328 327 326 326 329 330 327 327 328 328 325 322 320 320 323 325 326 327 331 334 331 324 325 339 12 20 267 266 187 194 208 221 240 248 251 252 234 202 178 163 158 163
327 328 328 327 326 327 330 330 332 332 329 327 325 323 323 326 329 330 329 332 332 333 335 338 356 20 14 311 291 314 331 295 268 255 253 252 246 212 142 138 146 151 155 162
327 329 327 327 327 325 327 334 337 332 328 327 326 328 330 329 330 332 333 334 335 337 344 2 10 9 305 281 311 329 342 317 304 305 277 253 118 104 119 127 133 141 149 157
325 328 327 326 325 326 332 336 334 330 329 329 331 335 337 334 333 336 332 331 340 345 0 14 14 4 300 313 333 330 325 317 314 317 338 54 88 107 117 124 130 139 149 156
325 325 326 328 328 332 331 333 332 333 336 336 337 340 344 341 337 335 336 341 348 351 360 12 14 5 0 4 353 342 329 318 314 324 37 85 102 109 116 124 131 139 145 151
323 321 326 322 328 328 331 334 333 337 336 338 338 341 344 344 342 340 340 344 352 355 1 6 9 11 17 16 15 16 26 71 113 118 108 111 110 110 113 118 123 126 132 138
313 320 321 327 337 338 335 333 335 336 337 342 337 341 345 345 345 344 345 349 354 357 0 4 6 8 14 19 23 31 46 69 94 107 109 108 108 110 115 117 117 122 127 130